Location: Newark
(52.3735°N, 16.9806°E)
Time: 01:51:49
(UTC+00:00)

Nauka - Pass Details

Date: 07 October 2021
Orbit: 417 x 423 km, 51.6° (Epoch: 16 October)

Event Time Altitude Azimuth Distance (km) Brightness Sun altitude
Rises 16:47:40 0° 278° (W) 2,365 ? -5.8°
Reaches altitude 10° 16:50:31 10° 252° (WSW) 1,498 ? -6.2°
Maximum altitude 16:52:19 14° 220° (SW) 1,281 ? -6.5°
Drops below altitude 10° 16:54:07 10° 187° (S) 1,493 ? -6.8°
Sets 16:56:58 0° 160° (SSE) 2,353 ? -7.2°
